PIMOHWEATHER Station Historical Data
Daily Summary for April 16, 2020 Units:  Metric    English   Both
Daily Weekly Monthly Yearly
  High: Low: Average:
Temperature: 36.0 °C 27.0 °C 29.9 °C
Dew Point: 27.0 °C 24.0 °C 25.4 °C
Humidity: 94% 58% 78%
Wind Speed: 20km/h 0km/h 6.7km/h
Wind Gust: 24km/h - -
Wind- - SE
Pressure: 1011.9 hPa 1007.5 hPa -
Precipitation: 10.16 mm    
 
 
Tabular Data for April 16, 2020
Time Temperature Dew Point Pressure Wind Wind Speed Wind Gust Humidity Rainfall Rate (Hourly) solar
00:04 28.0 °C 25.0 °C 1010.2 hPa SSE 6 km/h 8 km/h 81% 0.00 mm 0.00 W/m2
00:09 28.0 °C 25.0 °C 1010.2 hPa SSE 8 km/h 8 km/h 82% 0.00 mm 0.00 W/m2
00:14 28.0 °C 25.0 °C 1010.2 hPa SE 6 km/h 8 km/h 82% 0.00 mm 0.00 W/m2
00:19 28.0 °C 25.0 °C 1010.2 hPa SE 7 km/h 8 km/h 82% 0.00 mm 0.00 W/m2
00:24 28.0 °C 25.0 °C 1009.8 hPa SE 10 km/h 12 km/h 82% 0.00 mm 0.00 W/m2
00:29 29.0 °C 25.0 °C 1010.2 hPa ESE 6 km/h 8 km/h 83% 0.00 mm 0.00 W/m2
00:34 29.0 °C 25.0 °C 1009.8 hPa ESE 5 km/h 8 km/h 83% 0.00 mm 0.00 W/m2
00:39 29.0 °C 26.0 °C 1009.8 hPa SSE 3 km/h 4 km/h 84% 0.00 mm 0.00 W/m2
00:44 29.0 °C 26.0 °C 1009.8 hPa ESE 4 km/h 8 km/h 84% 0.00 mm 0.00 W/m2
00:49 28.0 °C 26.0 °C 1009.5 hPa SE 2 km/h 4 km/h 84% 0.00 mm 0.00 W/m2
00:54 28.0 °C 25.0 °C 1009.5 hPa East 5 km/h 8 km/h 84% 0.00 mm 0.00 W/m2
00:59 28.0 °C 26.0 °C 1009.5 hPa South 1 km/h 4 km/h 85% 0.00 mm 0.00 W/m2
01:04 28.0 °C 26.0 °C 1009.8 hPa Calm   4 km/h 85% 0.00 mm 0.00 W/m2
01:09 28.0 °C 26.0 °C 1009.5 hPa NNE 2 km/h 4 km/h 85% 0.00 mm 0.00 W/m2
01:14 28.0 °C 26.0 °C 1009.5 hPa Calm     85% 0.00 mm 0.00 W/m2
01:19 28.0 °C 26.0 °C 1009.5 hPa NNE 3 km/h 4 km/h 85% 0.00 mm 0.00 W/m2
01:24 28.0 °C 26.0 °C 1009.1 hPa South 1 km/h 4 km/h 85% 0.00 mm 0.00 W/m2
01:29 28.0 °C 26.0 °C 1009.1 hPa Calm     85% 0.00 mm 0.00 W/m2
01:34 28.0 °C 26.0 °C 1009.1 hPa NNE 3 km/h 4 km/h 85% 0.00 mm 0.00 W/m2
01:39 28.0 °C 25.0 °C 1009.5 hPa NE 4 km/h 8 km/h 85% 0.00 mm 0.00 W/m2
01:44 28.0 °C 25.0 °C 1009.1 hPa Calm     85% 0.00 mm 0.00 W/m2
01:49 28.0 °C 25.0 °C 1009.1 hPa NE 1 km/h 4 km/h 85% 0.00 mm 0.00 W/m2
01:54 28.0 °C 25.0 °C 1009.1 hPa North 3 km/h 4 km/h 85% 0.00 mm 0.00 W/m2
01:59 28.0 °C 25.0 °C 1008.8 hPa Calm     84% 0.00 mm 0.00 W/m2
02:04 28.0 °C 25.0 °C 1008.8 hPa Calm     84% 0.00 mm 0.00 W/m2
02:09 28.0 °C 25.0 °C 1008.8 hPa Calm     84% 0.00 mm 0.00 W/m2
02:14 28.0 °C 25.0 °C 1008.8 hPa Calm     84% 0.00 mm 0.00 W/m2
02:19 28.0 °C 25.0 °C 1008.8 hPa Calm     84% 0.00 mm 0.00 W/m2
02:24 28.0 °C 25.0 °C 1008.8 hPa Calm     84% 0.00 mm 0.00 W/m2
02:29 28.0 °C 25.0 °C 1008.8 hPa North 5 km/h 8 km/h 84% 0.00 mm 0.00 W/m2
02:34 28.0 °C 25.0 °C 1008.8 hPa Calm     84% 0.00 mm 0.00 W/m2
02:39 28.0 °C 25.0 °C 1008.8 hPa Calm     84% 0.00 mm 0.00 W/m2
02:44 28.0 °C 25.0 °C 1008.5 hPa NNE 1 km/h 4 km/h 84% 0.00 mm 0.00 W/m2
02:49 28.0 °C 25.0 °C 1008.5 hPa Calm     84% 0.00 mm 0.00 W/m2
02:54 28.0 °C 25.0 °C 1008.5 hPa Calm     84% 0.00 mm 0.00 W/m2
02:59 28.0 °C 25.0 °C 1008.5 hPa Calm     84% 0.00 mm 0.00 W/m2
03:04 28.0 °C 25.0 °C 1008.8 hPa Calm     83% 0.00 mm 0.00 W/m2
03:09 28.0 °C 25.0 °C 1008.5 hPa Calm     83% 0.00 mm 0.00 W/m2
03:14 28.0 °C 25.0 °C 1008.1 hPa NNE 4 km/h 4 km/h 84% 0.00 mm 0.00 W/m2
03:19 28.0 °C 25.0 °C 1008.5 hPa Calm     84% 0.00 mm 0.00 W/m2
03:24 28.0 °C 25.0 °C 1008.5 hPa Calm     84% 0.00 mm 0.00 W/m2
03:29 28.0 °C 25.0 °C 1008.5 hPa Calm     84% 0.00 mm 0.00 W/m2
03:34 28.0 °C 25.0 °C 1008.5 hPa Calm     83% 0.00 mm 0.00 W/m2
03:39 28.0 °C 25.0 °C 1008.5 hPa North 10 km/h 12 km/h 85% 0.00 mm 0.00 W/m2
03:44 28.0 °C 25.0 °C 1008.5 hPa North 8 km/h 8 km/h 86% 0.00 mm 0.00 W/m2
03:49 28.0 °C 25.0 °C 1008.5 hPa NNE 7 km/h 8 km/h 86% 0.00 mm 0.00 W/m2
03:54 27.0 °C 25.0 °C 1008.8 hPa NNE 7 km/h 8 km/h 86% 0.00 mm 0.00 W/m2
03:59 27.0 °C 25.0 °C 1008.8 hPa NNE 4 km/h 8 km/h 86% 0.00 mm 0.00 W/m2
04:04 27.0 °C 25.0 °C 1008.8 hPa NNE 5 km/h 8 km/h 86% 0.00 mm 0.00 W/m2
04:09 27.0 °C 25.0 °C 1008.8 hPa North 7 km/h 8 km/h 86% 0.00 mm 0.00 W/m2
04:14 27.0 °C 25.0 °C 1008.8 hPa North 5 km/h 8 km/h 86% 0.00 mm 0.00 W/m2
04:19 27.0 °C 25.0 °C 1008.8 hPa NNE 8 km/h 8 km/h 86% 0.00 mm 0.00 W/m2
04:24 27.0 °C 25.0 °C 1008.8 hPa North 6 km/h 8 km/h 86% 0.00 mm 0.00 W/m2
04:29 27.0 °C 25.0 °C 1008.8 hPa NNE 9 km/h 12 km/h 86% 0.00 mm 0.00 W/m2
04:34 27.0 °C 25.0 °C 1008.8 hPa NNE 5 km/h 8 km/h 86% 0.00 mm 0.00 W/m2
04:39 27.0 °C 25.0 °C 1008.8 hPa NNE 5 km/h 8 km/h 86% 0.00 mm 0.00 W/m2
04:44 27.0 °C 25.0 °C 1008.8 hPa North 6 km/h 8 km/h 86% 0.00 mm 0.00 W/m2
04:49 27.0 °C 25.0 °C 1008.8 hPa North 6 km/h 8 km/h 86% 0.00 mm 0.00 W/m2
04:54 27.0 °C 25.0 °C 1009.1 hPa North 6 km/h 8 km/h 86% 0.00 mm 0.00 W/m2
04:59 27.0 °C 25.0 °C 1009.1 hPa North 9 km/h 12 km/h 87% 0.00 mm 0.00 W/m2
05:04 27.0 °C 25.0 °C 1009.1 hPa North 11 km/h 16 km/h 87% 0.00 mm 0.00 W/m2
05:09 27.0 °C 24.0 °C 1009.1 hPa NNE 9 km/h 12 km/h 86% 0.00 mm 0.00 W/m2
05:14 27.0 °C 25.0 °C 1009.1 hPa North 8 km/h 8 km/h 87% 0.00 mm 0.00 W/m2
05:19 27.0 °C 24.0 °C 1009.1 hPa North 7 km/h 8 km/h 86% 0.00 mm 0.00 W/m2
05:24 27.0 °C 24.0 °C 1009.5 hPa NNE 3 km/h 4 km/h 86% 0.00 mm 0.00 W/m2
05:29 27.0 °C 24.0 °C 1009.5 hPa NNE 5 km/h 8 km/h 86% 0.00 mm 0.00 W/m2
05:34 27.0 °C 24.0 °C 1009.5 hPa North 8 km/h 12 km/h 86% 0.00 mm 0.00 W/m2
05:39 27.0 °C 24.0 °C 1009.5 hPa NNE 8 km/h 8 km/h 86% 0.00 mm 0.00 W/m2
05:44 27.0 °C 24.0 °C 1009.5 hPa NNE 8 km/h 12 km/h 86% 0.00 mm 1.93 W/m2
05:49 27.0 °C 24.0 °C 1009.8 hPa NNE 5 km/h 8 km/h 86% 0.00 mm 5.06 W/m2
05:54 27.0 °C 24.0 °C 1009.8 hPa NNE 6 km/h 8 km/h 86% 0.00 mm 9.66 W/m2
05:59 27.0 °C 24.0 °C 1009.8 hPa NNE 6 km/h 8 km/h 86% 0.00 mm 16.49 W/m2
06:04 27.0 °C 24.0 °C 1009.8 hPa Calm     86% 0.00 mm 22.56 W/m2
06:09 27.0 °C 24.0 °C 1010.2 hPa NNW 3 km/h 4 km/h 85% 0.00 mm 29.13 W/m2
06:14 27.0 °C 24.0 °C 1009.8 hPa North 7 km/h 8 km/h 85% 0.00 mm 35.09 W/m2
06:19 27.0 °C 24.0 °C 1009.8 hPa North 2 km/h 4 km/h 85% 0.00 mm 41.16 W/m2
06:24 27.0 °C 24.0 °C 1010.2 hPa NNW 6 km/h 12 km/h 85% 0.00 mm 48.35 W/m2
06:29 27.0 °C 24.0 °C 1010.2 hPa North 4 km/h 4 km/h 85% 0.00 mm 55.59 W/m2
06:34 27.0 °C 24.0 °C 1010.2 hPa NNW 2 km/h 4 km/h 85% 0.00 mm 94.51 W/m2
06:39 27.0 °C 24.0 °C 1010.5 hPa NNE 3 km/h 4 km/h 84% 0.00 mm 108.83 W/m2
06:44 27.0 °C 24.0 °C 1010.5 hPa North 5 km/h 8 km/h 83% 0.00 mm 117.58 W/m2
06:49 28.0 °C 25.0 °C 1010.5 hPa NNW 4 km/h 4 km/h 83% 0.00 mm 125.29 W/m2
06:54 28.0 °C 24.0 °C 1010.5 hPa NNW 6 km/h 8 km/h 82% 0.00 mm 133.46 W/m2
06:59 28.0 °C 24.0 °C 1010.8 hPa NNE 9 km/h 12 km/h 82% 0.00 mm 143.23 W/m2
07:04 28.0 °C 24.0 °C 1010.8 hPa North 11 km/h 12 km/h 82% 0.00 mm 152.08 W/m2
07:09 28.0 °C 24.0 °C 1010.8 hPa NNW 14 km/h 16 km/h 82% 0.00 mm 164.34 W/m2
07:14 28.0 °C 25.0 °C 1010.8 hPa NNW 12 km/h 12 km/h 82% 0.00 mm 178.41 W/m2
07:19 28.0 °C 25.0 °C 1011.2 hPa NNW 14 km/h 16 km/h 82% 0.00 mm 186.56 W/m2
07:24 28.0 °C 24.0 °C 1011.2 hPa North 13 km/h 16 km/h 82% 0.00 mm 198.01 W/m2
07:29 28.0 °C 24.0 °C 1011.2 hPa NNW 13 km/h 16 km/h 81% 0.00 mm 199.43 W/m2
07:34 28.0 °C 24.0 °C 1011.2 hPa North 15 km/h 20 km/h 81% 0.00 mm 210.63 W/m2
07:39 28.0 °C 25.0 °C 1011.2 hPa North 9 km/h 12 km/h 81% 0.00 mm 219.05 W/m2
07:44 29.0 °C 25.0 °C 1011.2 hPa NNE 11 km/h 12 km/h 80% 0.00 mm 229.42 W/m2
07:49 29.0 °C 25.0 °C 1011.2 hPa NNE 10 km/h 12 km/h 80% 0.00 mm 242.10 W/m2
07:54 29.0 °C 25.0 °C 1011.5 hPa NNE 7 km/h 8 km/h 79% 0.00 mm 249.83 W/m2
07:59 29.0 °C 25.0 °C 1011.5 hPa North 12 km/h 16 km/h 78% 0.00 mm 256.78 W/m2
08:04 29.0 °C 25.0 °C 1011.5 hPa North 13 km/h 16 km/h 78% 0.00 mm 260.99 W/m2
08:09 29.0 °C 25.0 °C 1011.5 hPa North 10 km/h 12 km/h 78% 0.00 mm 273.20 W/m2
08:14 29.0 °C 25.0 °C 1011.5 hPa North 9 km/h 12 km/h 79% 0.00 mm 288.17 W/m2
08:19 30.0 °C 25.0 °C 1011.5 hPa NNE 8 km/h 12 km/h 78% 0.00 mm 295.73 W/m2
08:24 31.0 °C 26.0 °C 1011.5 hPa NNW 5 km/h 8 km/h 76% 0.00 mm 311.32 W/m2
08:29 31.0 °C 26.0 °C 1011.5 hPa North 10 km/h 12 km/h 76% 0.00 mm 311.22 W/m2
08:34 31.0 °C 26.0 °C 1011.5 hPa NNE 6 km/h 8 km/h 77% 0.00 mm 320.66 W/m2
08:39 31.0 °C 26.0 °C 1011.5 hPa SE 4 km/h 4 km/h 74% 0.00 mm 337.99 W/m2
08:44 32.0 °C 26.0 °C 1011.5 hPa NW 6 km/h 8 km/h 72% 0.00 mm 351.83 W/m2
08:49 31.0 °C 25.0 °C 1011.5 hPa NW 10 km/h 12 km/h 73% 0.00 mm 366.93 W/m2
08:54 31.0 °C 26.0 °C 1011.5 hPa NNW 9 km/h 12 km/h 73% 0.00 mm 389.83 W/m2
08:59 32.0 °C 26.0 °C 1011.5 hPa ESE 4 km/h 4 km/h 74% 0.00 mm 412.98 W/m2
09:04 32.0 °C 26.0 °C 1011.5 hPa SSE 8 km/h 8 km/h 70% 0.00 mm 415.50 W/m2
09:09 32.0 °C 26.0 °C 1011.5 hPa SE 8 km/h 12 km/h 70% 0.00 mm 229.35 W/m2
09:14 32.0 °C 26.0 °C 1011.5 hPa SE 7 km/h 8 km/h 71% 0.00 mm 173.76 W/m2
09:19 31.0 °C 25.0 °C 1011.5 hPa SSE 5 km/h 8 km/h 71% 0.00 mm 211.27 W/m2
09:24 31.0 °C 26.0 °C 1011.5 hPa SSE 6 km/h 8 km/h 74% 0.00 mm 164.86 W/m2
09:29 31.0 °C 26.0 °C 1011.5 hPa South 5 km/h 8 km/h 74% 0.00 mm 163.78 W/m2
09:34 31.0 °C 26.0 °C 1011.5 hPa SSW 6 km/h 8 km/h 74% 0.00 mm 201.87 W/m2
09:39 31.0 °C 26.0 °C 1011.5 hPa WNW 10 km/h 12 km/h 76% 0.00 mm 196.96 W/m2
09:44 31.0 °C 26.0 °C 1011.2 hPa West 5 km/h 12 km/h 75% 0.00 mm 305.62 W/m2
09:49 31.0 °C 26.0 °C 1011.2 hPa East 6 km/h 8 km/h 74% 0.00 mm 217.07 W/m2
09:54 31.0 °C 25.0 °C 1011.2 hPa WSW 6 km/h 8 km/h 73% 0.00 mm 178.53 W/m2
09:59 31.0 °C 26.0 °C 1011.2 hPa NW 8 km/h 8 km/h 74% 0.00 mm 167.45 W/m2
10:04 31.0 °C 26.0 °C 1011.2 hPa South 6 km/h 8 km/h 74% 0.00 mm 252.06 W/m2
10:09 31.0 °C 26.0 °C 1011.2 hPa South 10 km/h 16 km/h 74% 0.00 mm 414.40 W/m2
10:14 31.0 °C 26.0 °C 1011.2 hPa South 10 km/h 12 km/h 74% 0.00 mm 418.63 W/m2
10:19 32.0 °C 26.0 °C 1011.2 hPa South 8 km/h 12 km/h 73% 0.00 mm 418.80 W/m2
10:24 32.0 °C 26.0 °C 1011.2 hPa SW 14 km/h 16 km/h 72% 0.00 mm 453.89 W/m2
10:29 33.0 °C 26.0 °C 1011.2 hPa West 7 km/h 12 km/h 72% 0.00 mm 459.61 W/m2
10:34 33.0 °C 26.0 °C 1011.2 hPa SW 8 km/h 8 km/h 70% 0.00 mm 485.38 W/m2
10:39 33.0 °C 26.0 °C 1011.2 hPa SW 11 km/h 16 km/h 69% 0.00 mm 467.83 W/m2
10:44 33.0 °C 26.0 °C 1010.8 hPa SW 15 km/h 20 km/h 71% 0.00 mm 415.45 W/m2
10:49 32.0 °C 26.0 °C 1010.8 hPa WSW 9 km/h 12 km/h 70% 0.00 mm 408.60 W/m2
10:54 33.0 °C 26.0 °C 1010.8 hPa SSW 13 km/h 16 km/h 71% 0.00 mm 460.35 W/m2
10:59 33.0 °C 26.0 °C 1011.2 hPa South 12 km/h 16 km/h 69% 0.00 mm 453.40 W/m2
11:04 32.0 °C 26.0 °C 1010.8 hPa South 14 km/h 16 km/h 71% 0.00 mm 425.26 W/m2
11:09 33.0 °C 26.0 °C 1010.8 hPa SSW 9 km/h 12 km/h 71% 0.00 mm 464.85 W/m2
11:14 33.0 °C 26.0 °C 1010.8 hPa South 16 km/h 20 km/h 71% 0.00 mm 475.12 W/m2
11:19 33.0 °C 26.0 °C 1010.8 hPa West 13 km/h 16 km/h 71% 0.00 mm 478.60 W/m2
11:24 33.0 °C 26.0 °C 1010.8 hPa South 14 km/h 16 km/h 71% 0.00 mm 462.43 W/m2
11:29 32.0 °C 26.0 °C 1010.8 hPa SSW 15 km/h 20 km/h 70% 0.00 mm 471.50 W/m2
11:34 33.0 °C 26.0 °C 1010.5 hPa SSW 14 km/h 16 km/h 69% 0.00 mm 462.21 W/m2
11:39 33.0 °C 26.0 °C 1010.5 hPa SSW 10 km/h 12 km/h 69% 0.00 mm 480.80 W/m2
11:44 33.0 °C 26.0 °C 1010.5 hPa West 13 km/h 16 km/h 68% 0.00 mm 474.93 W/m2
11:49 33.0 °C 26.0 °C 1010.5 hPa SSW 12 km/h 16 km/h 68% 0.00 mm 475.44 W/m2
11:54 33.0 °C 26.0 °C 1010.5 hPa WSW 12 km/h 16 km/h 68% 0.00 mm 453.89 W/m2
11:59 33.0 °C 26.0 °C 1010.2 hPa SW 14 km/h 16 km/h 68% 0.00 mm 439.43 W/m2
12:04 34.0 °C 27.0 °C 1010.2 hPa SSE 8 km/h 12 km/h 68% 0.00 mm 431.18 W/m2
12:09 34.0 °C 26.0 °C 1010.2 hPa SW 15 km/h 16 km/h 67% 0.00 mm 473.93 W/m2
12:14 33.0 °C 26.0 °C 1010.2 hPa South 17 km/h 20 km/h 69% 0.00 mm 473.34 W/m2
12:19 34.0 °C 27.0 °C 1009.8 hPa SSE 15 km/h 20 km/h 68% 0.00 mm 480.14 W/m2
12:24 33.0 °C 26.0 °C 1009.8 hPa South 13 km/h 16 km/h 69% 0.00 mm 486.31 W/m2
12:29 33.0 °C 26.0 °C 1009.8 hPa South 12 km/h 16 km/h 69% 0.00 mm 472.56 W/m2
12:34 34.0 °C 26.0 °C 1009.8 hPa SSE 13 km/h 16 km/h 68% 0.00 mm 491.00 W/m2
12:39 34.0 °C 27.0 °C 1009.1 hPa South 12 km/h 16 km/h 66% 0.00 mm 492.79 W/m2
12:44 34.0 °C 26.0 °C 1009.1 hPa SW 14 km/h 16 km/h 67% 0.00 mm 489.63 W/m2
12:49 34.0 °C 26.0 °C 1009.1 hPa SSW 9 km/h 12 km/h 66% 0.00 mm 484.99 W/m2
12:54 34.0 °C 26.0 °C 1009.1 hPa West 10 km/h 12 km/h 64% 0.00 mm 488.83 W/m2
12:59 34.0 °C 26.0 °C 1009.1 hPa SSW 10 km/h 16 km/h 64% 0.00 mm 500.20 W/m2
13:04 34.0 °C 27.0 °C 1009.1 hPa South 10 km/h 16 km/h 65% 0.00 mm 479.06 W/m2
13:09 34.0 °C 27.0 °C 1008.8 hPa SSW 13 km/h 20 km/h 65% 0.00 mm 483.37 W/m2
13:14 34.0 °C 26.0 °C 1008.8 hPa West 12 km/h 20 km/h 65% 0.00 mm 485.87 W/m2
13:19 34.0 °C 26.0 °C 1008.8 hPa WSW 10 km/h 16 km/h 64% 0.00 mm 487.19 W/m2
13:24 34.0 °C 26.0 °C 1008.8 hPa East 15 km/h 16 km/h 64% 0.00 mm 482.54 W/m2
13:29 34.0 °C 26.0 °C 1008.8 hPa NW 15 km/h 20 km/h 65% 0.00 mm 479.80 W/m2
13:34 35.0 °C 26.0 °C 1008.5 hPa SW 10 km/h 12 km/h 65% 0.00 mm 479.14 W/m2
13:39 35.0 °C 26.0 °C 1008.5 hPa South 13 km/h 20 km/h 62% 0.00 mm 484.28 W/m2
13:44 35.0 °C 26.0 °C 1008.1 hPa SW 17 km/h 20 km/h 62% 0.00 mm 494.14 W/m2
13:49 35.0 °C 26.0 °C 1008.1 hPa WNW 15 km/h 20 km/h 62% 0.00 mm 507.18 W/m2
13:54 35.0 °C 26.0 °C 1008.1 hPa West 9 km/h 16 km/h 62% 0.00 mm 507.15 W/m2
13:59 35.0 °C 27.0 °C 1008.1 hPa South 9 km/h 12 km/h 61% 0.00 mm 502.28 W/m2
14:03 35.0 °C 26.0 °C 1008.1 hPa SE 7 km/h 8 km/h 61% 0.00 mm 494.06 W/m2
14:09 35.0 °C 26.0 °C 1007.8 hPa SSW 16 km/h 20 km/h 61% 0.00 mm 479.68 W/m2
14:14 35.0 °C 26.0 °C 1007.8 hPa SSW 14 km/h 16 km/h 62% 0.00 mm 472.38 W/m2
14:19 35.0 °C 26.0 °C 1007.5 hPa SSW 10 km/h 12 km/h 62% 0.00 mm 464.33 W/m2
14:24 35.0 °C 26.0 °C 1007.8 hPa South 8 km/h 8 km/h 59% 0.00 mm 468.22 W/m2
14:29 35.0 °C 26.0 °C 1007.8 hPa SW 12 km/h 16 km/h 60% 0.00 mm 462.65 W/m2
14:34 35.0 °C 26.0 °C 1007.5 hPa NW 14 km/h 16 km/h 62% 0.00 mm 462.72 W/m2
14:39 35.0 °C 26.0 °C 1007.5 hPa WNW 8 km/h 12 km/h 62% 0.00 mm 439.50 W/m2
14:44 36.0 °C 26.0 °C 1007.5 hPa South 8 km/h 8 km/h 60% 0.00 mm 459.51 W/m2
14:49 36.0 °C 26.0 °C 1007.5 hPa WSW 10 km/h 12 km/h 59% 0.00 mm 458.19 W/m2
14:54 36.0 °C 26.0 °C 1007.5 hPa SW 8 km/h 12 km/h 59% 0.00 mm 455.60 W/m2
14:59 36.0 °C 26.0 °C 1007.5 hPa WNW 19 km/h 24 km/h 61% 0.00 mm 427.00 W/m2
15:04 35.0 °C 26.0 °C 1007.5 hPa WNW 15 km/h 20 km/h 62% 0.00 mm 453.52 W/m2
15:09 35.0 °C 26.0 °C 1007.5 hPa WNW 10 km/h 12 km/h 61% 0.00 mm 452.57 W/m2
15:14 36.0 °C 26.0 °C 1007.5 hPa SSW 9 km/h 12 km/h 60% 0.00 mm 434.70 W/m2
15:19 36.0 °C 26.0 °C 1007.5 hPa WNW 9 km/h 12 km/h 58% 0.00 mm 429.40 W/m2
15:24 36.0 °C 26.0 °C 1007.5 hPa West 14 km/h 16 km/h 60% 0.00 mm 407.35 W/m2
15:29 35.0 °C 26.0 °C 1007.5 hPa West 8 km/h 12 km/h 60% 0.00 mm 233.29 W/m2
15:34 35.0 °C 26.0 °C 1007.5 hPa NW 15 km/h 20 km/h 61% 0.00 mm 162.14 W/m2
15:39 34.0 °C 26.0 °C 1007.8 hPa WSW 6 km/h 8 km/h 62% 0.00 mm 138.28 W/m2
15:44 34.0 °C 26.0 °C 1007.8 hPa NW 11 km/h 12 km/h 71% 3.56 mm 121.25 W/m2
15:49 32.0 °C 26.0 °C 1008.1 hPa NNE 20 km/h 20 km/h 78% 18.03 mm 120.77 W/m2
15:54 30.0 °C 26.0 °C 1008.1 hPa NE 12 km/h 16 km/h 83% 21.59 mm 136.69 W/m2
15:59 29.0 °C 26.0 °C 1007.8 hPa NE 13 km/h 16 km/h 85% 19.81 mm 114.48 W/m2
16:04 29.0 °C 26.0 °C 1008.1 hPa NNE 8 km/h 12 km/h 86% 5.33 mm 104.84 W/m2
16:09 29.0 °C 26.0 °C 1008.5 hPa NNW 7 km/h 12 km/h 86% 0.00 mm 91.80 W/m2
16:14 29.0 °C 27.0 °C 1008.5 hPa SE 10 km/h 16 km/h 87% 1.78 mm 76.00 W/m2
16:19 29.0 °C 26.0 °C 1008.5 hPa ESE 10 km/h 16 km/h 91% 14.48 mm 81.81 W/m2
16:24 28.0 °C 26.0 °C 1008.5 hPa SSW 5 km/h 8 km/h 93% 18.03 mm 87.64 W/m2
16:29 27.0 °C 26.0 °C 1008.8 hPa ESE 7 km/h 12 km/h 93% 16.26 mm 107.60 W/m2
16:34 27.0 °C 26.0 °C 1008.8 hPa ENE 5 km/h 8 km/h 93% 8.89 mm 94.37 W/m2
16:39 27.0 °C 26.0 °C 1008.5 hPa NE 5 km/h 8 km/h 94% 12.70 mm 49.08 W/m2
16:44 27.0 °C 26.0 °C 1008.8 hPa NE 12 km/h 16 km/h 93% 14.48 mm 51.53 W/m2
16:49 27.0 °C 26.0 °C 1008.8 hPa NE 10 km/h 12 km/h 92% 10.67 mm 59.79 W/m2
16:54 27.0 °C 26.0 °C 1008.8 hPa NNE 10 km/h 12 km/h 93% 3.56 mm 67.42 W/m2
16:59 27.0 °C 26.0 °C 1008.8 hPa East 5 km/h 12 km/h 92% 0.00 mm 82.52 W/m2
17:04 27.0 °C 26.0 °C 1008.8 hPa SSE 3 km/h 4 km/h 92% 0.00 mm 105.57 W/m2
17:09 27.0 °C 26.0 °C 1008.8 hPa ENE 2 km/h 4 km/h 93% 0.00 mm 89.67 W/m2
17:14 27.0 °C 26.0 °C 1008.5 hPa NNE 10 km/h 12 km/h 93% 0.00 mm 86.93 W/m2
17:19 27.0 °C 26.0 °C 1008.5 hPa NNE 13 km/h 16 km/h 93% 0.00 mm 63.62 W/m2
17:24 27.0 °C 26.0 °C 1008.8 hPa NNE 9 km/h 12 km/h 92% 0.00 mm 60.06 W/m2
17:29 28.0 °C 26.0 °C 1008.8 hPa NE 6 km/h 12 km/h 90% 0.00 mm 51.44 W/m2
17:34 28.0 °C 26.0 °C 1008.8 hPa SE 5 km/h 8 km/h 89% 0.00 mm 40.49 W/m2
17:39 28.0 °C 26.0 °C 1009.1 hPa NNE 3 km/h 4 km/h 87% 0.00 mm 34.80 W/m2
17:44 29.0 °C 26.0 °C 1009.1 hPa ESE 3 km/h 4 km/h 86% 0.00 mm 31.15 W/m2
17:49 29.0 °C 26.0 °C 1009.1 hPa NNE 4 km/h 8 km/h 84% 0.00 mm 25.63 W/m2
17:54 29.0 °C 26.0 °C 1009.1 hPa SE 1 km/h 4 km/h 84% 0.00 mm 17.74 W/m2
17:59 29.0 °C 26.0 °C 1009.1 hPa ESE 2 km/h 4 km/h 84% 0.00 mm 7.72 W/m2
18:04 29.0 °C 26.0 °C 1009.1 hPa SE 6 km/h 8 km/h 84% 0.00 mm 3.72 W/m2
18:09 28.0 °C 26.0 °C 1009.1 hPa SE 6 km/h 8 km/h 85% 0.00 mm 0.95 W/m2
18:14 28.0 °C 26.0 °C 1009.5 hPa SE 10 km/h 16 km/h 86% 0.00 mm 0.00 W/m2
18:19 28.0 °C 26.0 °C 1009.8 hPa SE 8 km/h 8 km/h 87% 0.00 mm 0.00 W/m2
18:24 28.0 °C 26.0 °C 1009.8 hPa SSE 1 km/h 4 km/h 87% 0.00 mm 0.00 W/m2
18:29 28.0 °C 26.0 °C 1010.2 hPa SSE 8 km/h 12 km/h 86% 0.00 mm 0.00 W/m2
18:34 29.0 °C 26.0 °C 1010.2 hPa South 6 km/h 8 km/h 86% 0.00 mm 0.00 W/m2
18:39 29.0 °C 26.0 °C 1010.5 hPa South 4 km/h 8 km/h 86% 0.00 mm 0.00 W/m2
18:44 29.0 °C 26.0 °C 1010.5 hPa Calm   4 km/h 86% 0.00 mm 0.00 W/m2
18:49 29.0 °C 26.0 °C 1010.5 hPa Calm     85% 0.00 mm 0.00 W/m2
18:54 29.0 °C 26.0 °C 1010.5 hPa Calm     84% 0.00 mm 0.00 W/m2
18:59 29.0 °C 26.0 °C 1010.5 hPa Calm     84% 0.00 mm 0.00 W/m2
19:04 29.0 °C 26.0 °C 1010.2 hPa Calm     83% 0.00 mm 0.00 W/m2
19:09 29.0 °C 26.0 °C 1010.5 hPa SE 3 km/h 4 km/h 81% 0.00 mm 0.00 W/m2
19:14 29.0 °C 26.0 °C 1010.5 hPa SSE 3 km/h 4 km/h 82% 0.00 mm 0.00 W/m2
19:19 29.0 °C 26.0 °C 1010.5 hPa SSE 3 km/h 4 km/h 81% 0.00 mm 0.00 W/m2
19:24 29.0 °C 26.0 °C 1010.5 hPa South 3 km/h 4 km/h 81% 0.00 mm 0.00 W/m2
19:29 29.0 °C 26.0 °C 1010.5 hPa Calm     81% 0.00 mm 0.00 W/m2
19:34 29.0 °C 26.0 °C 1010.5 hPa SE 2 km/h 4 km/h 81% 0.00 mm 0.00 W/m2
19:39 29.0 °C 25.0 °C 1010.5 hPa NE 1 km/h 4 km/h 79% 0.00 mm 0.00 W/m2
19:44 29.0 °C 25.0 °C 1010.5 hPa Calm   4 km/h 78% 0.00 mm 0.00 W/m2
19:49 30.0 °C 26.0 °C 1010.5 hPa NE 1 km/h 4 km/h 79% 0.00 mm 0.00 W/m2
19:54 29.0 °C 25.0 °C 1010.5 hPa NE 1 km/h 4 km/h 79% 0.00 mm 0.00 W/m2
19:59 29.0 °C 25.0 °C 1010.5 hPa Calm     79% 0.00 mm 0.00 W/m2
20:04 29.0 °C 25.0 °C 1010.8 hPa Calm     79% 0.00 mm 0.00 W/m2
20:09 29.0 °C 25.0 °C 1010.8 hPa Calm     79% 0.00 mm 0.00 W/m2
20:14 29.0 °C 25.0 °C 1010.8 hPa Calm     79% 0.00 mm 0.00 W/m2
20:19 29.0 °C 25.0 °C 1011.2 hPa Calm     79% 0.00 mm 0.00 W/m2
20:24 30.0 °C 26.0 °C 1011.2 hPa Calm     79% 0.00 mm 0.00 W/m2
20:29 30.0 °C 26.0 °C 1011.2 hPa NE 2 km/h 4 km/h 80% 0.00 mm 0.00 W/m2
20:34 30.0 °C 26.0 °C 1011.5 hPa Calm     81% 0.00 mm 0.00 W/m2
20:39 30.0 °C 26.0 °C 1011.2 hPa Calm     81% 0.00 mm 0.00 W/m2
20:44 30.0 °C 26.0 °C 1011.5 hPa ESE 4 km/h 4 km/h 81% 0.00 mm 0.00 W/m2
20:49 30.0 °C 26.0 °C 1011.5 hPa East 1 km/h 4 km/h 80% 0.00 mm 0.00 W/m2
20:54 29.0 °C 26.0 °C 1011.5 hPa NNE 5 km/h 8 km/h 81% 0.00 mm 0.00 W/m2
20:59 29.0 °C 26.0 °C 1011.5 hPa North 4 km/h 4 km/h 80% 0.00 mm 0.00 W/m2
21:04 29.0 °C 26.0 °C 1011.2 hPa NNE 3 km/h 4 km/h 80% 0.00 mm 0.00 W/m2
21:09 29.0 °C 26.0 °C 1011.2 hPa Calm   4 km/h 80% 0.00 mm 0.00 W/m2
21:14 29.0 °C 26.0 °C 1011.5 hPa Calm     80% 0.00 mm 0.00 W/m2
21:19 29.0 °C 25.0 °C 1011.5 hPa NNE 4 km/h 4 km/h 79% 0.00 mm 0.00 W/m2
21:24 29.0 °C 25.0 °C 1011.5 hPa NNE 5 km/h 8 km/h 79% 0.00 mm 0.00 W/m2
21:29 30.0 °C 25.0 °C 1011.5 hPa ENE 1 km/h 4 km/h 78% 0.00 mm 0.00 W/m2
21:34 30.0 °C 25.0 °C 1011.9 hPa Calm   4 km/h 78% 0.00 mm 0.00 W/m2
21:39 30.0 °C 25.0 °C 1011.9 hPa NNE 5 km/h 8 km/h 78% 0.00 mm 0.00 W/m2
21:44 30.0 °C 25.0 °C 1011.9 hPa NE 4 km/h 4 km/h 77% 0.00 mm 0.00 W/m2
21:49 30.0 °C 25.0 °C 1011.9 hPa NE 7 km/h 8 km/h 76% 0.00 mm 0.00 W/m2
21:54 30.0 °C 25.0 °C 1011.9 hPa NNE 5 km/h 12 km/h 76% 0.00 mm 0.00 W/m2
21:59 30.0 °C 25.0 °C 1011.9 hPa NNE 4 km/h 8 km/h 76% 0.00 mm 0.00 W/m2
22:04 30.0 °C 25.0 °C 1011.5 hPa NNE 5 km/h 8 km/h 76% 0.00 mm 0.00 W/m2
22:09 30.0 °C 25.0 °C 1011.5 hPa NNE 7 km/h 8 km/h 76% 0.00 mm 0.00 W/m2
22:14 30.0 °C 25.0 °C 1011.5 hPa North 5 km/h 8 km/h 78% 0.00 mm 0.00 W/m2
22:19 29.0 °C 25.0 °C 1011.9 hPa NNE 8 km/h 8 km/h 78% 0.00 mm 0.00 W/m2
22:24 29.0 °C 25.0 °C 1011.5 hPa NNE 5 km/h 8 km/h 78% 0.00 mm 0.00 W/m2
22:29 29.0 °C 25.0 °C 1011.5 hPa East 2 km/h 4 km/h 78% 0.00 mm 0.00 W/m2
22:34 29.0 °C 25.0 °C 1011.9 hPa NE 6 km/h 8 km/h 79% 0.00 mm 0.00 W/m2
22:39 29.0 °C 25.0 °C 1011.5 hPa ENE 6 km/h 8 km/h 79% 0.00 mm 0.00 W/m2
22:44 29.0 °C 25.0 °C 1011.5 hPa NE 4 km/h 4 km/h 79% 0.00 mm 0.00 W/m2
22:49 29.0 °C 25.0 °C 1011.5 hPa North 7 km/h 8 km/h 80% 0.00 mm 0.00 W/m2
22:54 29.0 °C 25.0 °C 1011.5 hPa NNE 8 km/h 8 km/h 80% 0.00 mm 0.00 W/m2
22:59 29.0 °C 25.0 °C 1011.9 hPa NNE 6 km/h 8 km/h 80% 0.00 mm 0.00 W/m2
23:04 29.0 °C 25.0 °C 1011.9 hPa North 10 km/h 12 km/h 80% 0.00 mm 0.00 W/m2
23:09 29.0 °C 25.0 °C 1011.9 hPa NNE 6 km/h 8 km/h 80% 0.00 mm 0.00 W/m2
23:14 29.0 °C 25.0 °C 1011.5 hPa North 6 km/h 8 km/h 80% 0.00 mm 0.00 W/m2
23:19 29.0 °C 25.0 °C 1011.5 hPa North 10 km/h 12 km/h 79% 0.00 mm 0.00 W/m2
23:24 29.0 °C 24.0 °C 1011.9 hPa North 5 km/h 8 km/h 78% 0.00 mm 0.00 W/m2
23:29 29.0 °C 24.0 °C 1011.5 hPa NNE 12 km/h 16 km/h 78% 0.00 mm 0.00 W/m2
23:34 29.0 °C 24.0 °C 1011.5 hPa NNE 8 km/h 8 km/h 78% 0.00 mm 0.00 W/m2
23:39 29.0 °C 24.0 °C 1011.5 hPa NNE 13 km/h 16 km/h 78% 0.00 mm 0.00 W/m2
23:44 29.0 °C 24.0 °C 1011.5 hPa NNE 7 km/h 12 km/h 78% 0.00 mm 0.00 W/m2
23:49 29.0 °C 24.0 °C 1011.5 hPa ENE 5 km/h 8 km/h 78% 0.00 mm 0.00 W/m2
23:54 28.0 °C 24.0 °C 1011.2 hPa NNE 5 km/h 8 km/h 78% 0.00 mm 0.00 W/m2
23:59 28.0 °C 24.0 °C 1011.2 hPa NNE 3 km/h 4 km/h 78% 0.00 mm 0.00 W/m2
PIMOHWEATHER Philippines
Compliments of Weather Underground - 2 mb